DW9955 Weather Reports


time (UTC)temp
C
wind
direction
speed
KPH
gust
KPH
rain 1hr
cm
rain 24hr
cm
rain mn
cm
humidity
%
barometer
mb
20190423060031 6 185 6.4 12.9 0.00 0.03 0.03 80 1015.3
20190423054528 6 170 12.9 22.5 0.00 0.03 0.03 79 1015.4
20190423053034 6 164 17.7 24.1 0.00 0.03 0.03 79 1015.6
20190423051551 6 187 6.4 12.9 0.00 0.03 0.03 78 1016.0
20190423050027 6 183 8.0 16.1 0.00 0.03 0.03 76 1016.1
20190423044519 7 156 9.7 16.1 0.00 0.03 0.03 75 1015.7
20190423043024 7 135 20.9 33.8 0.00 0.03 0.03 73 1015.9
20190423041528 8 160 24.1 32.2 0.00 0.03 0.03 71 1016.0
20190423040015 8 149 19.3 25.7 0.00 0.03 0.03 71 1016.5
20190423034505 8 129 19.3 30.6 0.00 0.03 0.03 70 1016.7
20190423033006 8 160 17.7 27.4 0.00 0.03 0.03 69 1016.8
20190423031508 8 153 16.1 24.1 0.00 0.03 0.03 69 1016.7
20190423030004 8 156 17.7 27.4 0.00 0.05 0.03 68 1016.6
20190423024507 9 149 14.5 22.5 0.00 0.05 0.03 68 1016.6
20190423023008 9 162 14.5 24.1 0.00 0.05 0.03 67 1016.6
20190423021502 10 145 9.7 17.7 0.00 0.05 0.03 65 1016.8
20190423020115 10 138 14.5 17.7 0.00 0.05 0.03 63 1016.7
20190423014725 10 166 11.3 29.0 0.00 0.05 0.03 62 1016.6
20190423013216 11 143 17.7 35.4 0.00 0.05 0.03 60 1016.5
20190423013050 11 138 20.9 35.4 0.00 0.05 0.03 59 1016.5
20190423011654 11 161 19.3 32.2 0.00 0.05 0.03 59 1016.6
20190423010106 12 179 22.5 45.1 0.00 0.05 0.03 57 1016.8
20190423004612 12 167 19.3 38.6 0.00 0.05 0.03 57 1017.0
20190423003238 12 156 22.5 35.4 0.00 0.05 0.03 56 1017.0
20190423001730 12 197 16.1 38.6 0.00 0.05 0.03 55 1017.0
20190423000117 12 191 25.7 45.1 0.00 0.05 0.03 57 1017.2
20190422234629 12 145 20.9 40.2 0.00 0.05 0.03 55 1017.3
20190422233202 13 118 20.9 32.2 0.00 0.05 0.03 53 1017.4
20190422231640 12 154 25.7 38.6 0.00 0.05 0.03 57 1017.6
20190422230220 12 157 32.2 41.8 0.00 0.05 0.03 57 1017.8
20190422224600 12 159 24.1 37.0 0.00 0.05 0.03 57 1018.2
20190422223131 13 160 27.4 38.6 0.00 0.05 0.03 56 1018.3
20190422221651 12 189 20.9 38.6 0.00 0.05 0.03 54 1018.6
20190422220128 12 166 24.1 37.0 0.00 0.05 0.03 58 1018.9
20190422214636 12 151 19.3 41.8 0.00 0.05 0.03 58 1019.1
20190422213053 11 158 25.7 38.6 0.00 0.05 0.03 59 1019.2
20190422211618 11 143 29.0 40.2 0.00 0.05 0.03 59 1019.6
20190422210115 11 184 16.1 37.0 0.00 0.05 0.03 62 1019.9
20190422204551 10 163 11.3 29.0 0.00 0.05 0.03 61 1020.1
20190422203057 10 198 20.9 30.6 0.00 0.05 0.03 63 1020.3
20190422201547 10 153 12.9 29.0 0.00 0.05 0.03 66 1020.5
20190422200050 10 153 19.3 25.7 0.00 0.05 0.03 65 1020.7
20190422194544 10 170 14.5 29.0 0.00 0.05 0.03 66 1020.7
20190422193128 10 163 17.7 35.4 0.00 0.05 0.03 65 1020.8
20190422191537 10 154 20.9 33.8 0.00 0.05 0.03 64 1021.0
20190422190059 10 148 19.3 27.4 0.00 0.05 0.03 65 1021.2
20190422184541 10 148 22.5 32.2 0.00 0.05 0.03 67 1021.4
20190422183036 9 137 20.9 29.0 0.00 0.05 0.03 70 1021.6
20190422181537 9 130 17.7 25.7 0.00 0.05 0.03 68 1021.7
20190422180024 9 150 14.5 37.0 0.00 0.05 0.03 69 1021.9
20190422174524 8 132 14.5 24.1 0.00 0.05 0.03 75 1022.0
20190422173016 8 133 16.1 29.0 0.00 0.05 0.03 73 1022.1
20190422171512 8 147 14.5 22.5 0.00 0.05 0.03 71 1022.1
20190422170033 8 160 12.9 24.1 0.00 0.05 0.03 72 1022.4
20190422164533 8 128 4.8 25.7 0.00 0.05 0.03 72 1022.3
20190422163015 8 141 8.0 19.3 0.00 0.05 0.03 70 1022.3
20190422161509 8 170 8.0 19.3 0.00 0.05 0.03 70 1022.2
20190422160013 8 158 4.8 19.3 0.00 0.10 0.03 71 1022.3
20190422154507 8 125 8.0 16.1 0.00 0.10 0.03 73 1022.4
20190422151611 7 109 6.4 14.5 0.00 0.10 0.03 79 1022.5
20190422150153 7 124 8.0 14.5 0.00 0.10 0.03 81 1022.5
20190422144649 7 150 8.0 14.5 0.00 0.10 0.03 82 1022.4
20190422143149 7 135 6.4 14.5 0.00 0.10 0.03 83 1022.2
20190422141620 6 168 4.8 11.3 0.00 0.10 0.03 86 1022.2
20190422140115 6 174 0.0 3.2 0.00 0.10 0.03 93 1022.2
20190422134622 5 179 0.0 4.8 0.00 0.10 0.03 93 1022.2
20190422133123 5 125 0.0 0.0 0.00 0.10 0.03 93 1022.2
20190422131627 5 170 0.0 0.0 0.00 0.10 0.03 94 1022.1
20190422130113 5 170 0.0 0.0 0.00 0.13 0.03 93 1021.9
20190422124537 5 170 0.0 0.0 0.00 0.13 0.03 93 1021.8
20190422123051 5 170 0.0 0.0 0.00 0.13 0.03 93 1021.6
20190422121534 5 170 0.0 0.0 0.00 0.13 0.03 93 1021.4
20190422120039 5 170 0.0 0.0 0.00 0.36 0.03 93 1021.2
20190422114527 5 170 0.0 0.0 0.00 0.36 0.03 93 1021.0
20190422113026 5 170 0.0 0.0 0.00 0.36 0.03 93 1020.8
20190422111524 5 170 0.0 0.0 0.00 0.36 0.03 93 1020.7
20190422110038 5 170 0.0 3.2 0.00 0.36 0.03 93 1020.7
20190422104535 5 170 1.6 4.8 0.00 0.36 0.03 93 1020.7
20190422103018 5 176 1.6 3.2 0.00 0.36 0.03 94 1020.6
20190422101514 5 188 0.0 0.0 0.00 0.36 0.03 94 1020.5
20190422100026 5 190 0.0 0.0 0.00 0.36 0.03 94 1020.2
20190422094529 5 84 0.0 0.0 0.00 0.36 0.03 94 1020.2
20190422093049 5 84 0.0 0.0 0.00 0.36 0.03 94 1020.0
20190422091509 5 84 0.0 0.0 0.00 0.36 0.03 94 1019.9
20190422090013 5 12 0.0 0.0 0.00 0.36 0.03 94 1019.8
20190422084523 5 11 0.0 0.0 0.00 0.36 0.03 93 1019.8
20190422083019 5 11 0.0 0.0 0.00 0.36 0.03 93 1019.9
20190422081504 5 11 0.0 0.0 0.00 0.36 0.03 93 1019.8
20190422080019 5 11 0.0 0.0 0.00 0.38 0.03 93 1020.0
20190422074503 5 11 0.0 0.0 0.03 0.38 0.03 93 1020.0
20190422071646 5 11 0.0 0.0 0.03 0.38 0.03 94 1019.9
20190422070202 5 11 0.0 0.0 0.03 0.38 0.03 94 1019.8
20190422064656 5 11 0.0 0.0 0.00 0.36 0.00 94 1019.7
20190422063207 5 11 0.0 0.0 0.00 0.36 0.00 94 1019.6
20190422061637 5 11 0.0 0.0 0.00 0.36 0.00 94 1019.6
20190422060225 5 12 0.0 0.0 0.00 0.36 0.00 94 1019.6